Pontiac, MI

9:03 PM EDT on April 30, 2017 (GMT -0400)
Oakland County International

Weather History for KPTK - October, 2010

Change the Weather History Date:

Saturday, October 23, 2010

  Actual Average Record
Temperature  
Mean Temperature 54 °F -  
Max Temperature 63 °F 55 °F 113 °F (2008)
Min Temperature 46 °F 38 °F 28 °F (1997)
Degree Days  
Heating Degree Days 10    
Growing Degree Days 4 (Base 50)    
Moisture  
Dew Point 41 °F    
Average Humidity 60    
Maximum Humidity 77    
Minimum Humidity 46    
Precipitation  
Precipitation 0.02 in - - ()
Sea Level Pressure  
Sea Level Pressure 30.03 in    
Wind  
Wind Speed 5 mph (SSW)    
Max Wind Speed 12 mph    
Max Gust Speed 18 mph    
Visibility 10 miles    
Events Rain    
Averages and records for this station are not official NWS values.
T = Trace of Precipitation, MM = Missing Value Source: NWS Daily Summary

Daily Weather History Graph

Daily Weather History Graph

Search for Another Location

Airport or City:

Trip Planner

Search our weather history database for the weather conditions in past years. The results will help you decide how hot, cold, wet, or windy it might be!

Date:

Astronomy

Oct. 23, 2010 Rise Set
Actual Time 7:56 AM EDT 6:38 PM EDT
Civil Twilight 7:27 AM EDT 7:07 PM EDT
Nautical Twilight 6:54 AM EDT 7:40 PM EDT
Astronomical Twilight 6:21 AM EDT 8:13 PM EDT
Moon 6:38 PM EDT (10/23) 8:38 AM EDT (10/23)
Length of Visible Light 11h 40m
Length of Day
10h 42m
Full, 100% of the Moon is Illuminated
Oct 23
Full
Oct 30
Last Quarter
Nov 6
New
Nov 13
First Quarter
Nov 21
Full

Hourly Weather History & Observations

Time (EDT) Temp. Dew Point Humidity Pressure Visibility Wind Dir Wind Speed Gust Speed Precip Events Conditions
12:53 AM 48.9 °F 32.0 °F 52% 30.07 in 10.0 mi SSW 6.9 mph - N/A   Overcast
1:53 AM 50.0 °F 30.9 °F 48% 30.05 in 10.0 mi SW 5.8 mph - N/A   Overcast
2:53 AM 51.1 °F 30.9 °F 46% 30.07 in 10.0 mi West 6.9 mph - N/A   Overcast
3:53 AM 48.0 °F 39.9 °F 74% 30.06 in 10.0 mi Calm Calm - 0.01 in   Overcast
4:53 AM 46.9 °F 39.9 °F 77% 30.04 in 10.0 mi South 3.5 mph - N/A   Overcast
5:53 AM 46.9 °F 36.0 °F 66% 30.04 in 10.0 mi South 4.6 mph - N/A   Mostly Cloudy
6:53 AM 46.9 °F 36.0 °F 66% 30.04 in 10.0 mi South 4.6 mph - N/A   Mostly Cloudy
7:53 AM 46.0 °F 36.0 °F 68% 30.04 in 10.0 mi Calm Calm - N/A   Scattered Clouds
8:53 AM 48.9 °F 37.9 °F 66% 30.05 in 10.0 mi Calm Calm - N/A   Scattered Clouds
9:53 AM 54.0 °F 37.0 °F 53% 30.06 in 10.0 mi SW 4.6 mph - N/A   Scattered Clouds
10:53 AM 55.9 °F 39.9 °F 55% 30.07 in 10.0 mi SW 6.9 mph - N/A   Overcast
11:53 AM 57.9 °F 45.0 °F 62% 30.08 in 10.0 mi WSW 11.5 mph 18.4 mph 0.00 in Rain Light Rain
12:53 PM 57.0 °F 48.9 °F 74% 30.07 in 10.0 mi WSW 9.2 mph - 0.01 in   Overcast
1:53 PM 59.0 °F 48.9 °F 69% 30.06 in 10.0 mi WSW 6.9 mph - N/A   Overcast
2:53 PM 62.1 °F 46.0 °F 56% 30.04 in 10.0 mi WSW 4.6 mph - N/A   Overcast
3:53 PM 63.0 °F 45.0 °F 52% 30.01 in 10.0 mi South 5.8 mph - 0.00 in Rain Light Rain
4:53 PM 62.1 °F 46.9 °F 58% 30.00 in 10.0 mi South 3.5 mph - 0.00 in   Overcast
5:53 PM 60.1 °F 45.0 °F 57% 29.99 in 10.0 mi SE 6.9 mph - N/A   Overcast
6:53 PM 59.0 °F 44.1 °F 58% 30.00 in 10.0 mi SSE 4.6 mph - N/A   Overcast
7:53 PM 57.9 °F 44.1 °F 60% 30.01 in 10.0 mi SSE 3.5 mph - N/A   Overcast
8:53 PM 59.0 °F 43.0 °F 55% 30.01 in 10.0 mi Calm Calm - N/A   Overcast
9:53 PM 59.0 °F 43.0 °F 55% 29.99 in 10.0 mi SSE 6.9 mph - N/A   Overcast
10:53 PM 57.0 °F 43.0 °F 59% 29.99 in 10.0 mi South 3.5 mph - N/A   Overcast
11:53 PM 55.9 °F 43.0 °F 62% 29.98 in 10.0 mi South 4.6 mph - N/A   Mostly Cloudy